Date String (YYYY-MM-DD hh:mm:ss) UTC,Instrument flags,Ambient pressure (hPa),Sample flow (lpm),Bypass flow (lpm),Sample temperature (°C),Ambient temperature (°C),ASC tube jacket temperature (°C),LED temperature (°C),Box temperature (°C),Sample RH (%),Span deviation,Mass concentration (μg/m³),Mass concentration (μg/m³),Mass concentration (μg/m³)
DateTimeUTC,F1_M11,P_M11,Q1_M11,Q2_M11,T1_M11,T2_M11,T3_M11,T4_M11,T5_M11,U1_M11,ZSPAN_M11,X0_M11,X2_M11,X1_M11
2023-01-15 06:00:00,,0814.1,4.99,0.00,24.2,22.7,00.0,33.1,25.9,11.7,0000.0,0000.69,0000.49,0000.41
2023-01-15 06:01:00,,0814.2,5.01,0.00,24.2,22.7,00.0,33.1,25.9,11.6,0000.0,0000.67,0000.48,0000.42
2023-01-15 06:02:00,,0814.4,5.01,0.00,24.2,22.6,00.0,33.1,25.9,11.8,0000.0,0000.68,0000.48,0000.43
2023-01-15 06:03:00,,0814.3,4.99,0.00,24.2,22.6,00.0,33.1,25.9,11.7,0000.0,0000.72,0000.49,0000.44
2023-01-15 06:04:00,,0814.4,5.01,0.00,24.1,22.6,00.0,33.1,25.9,12.0,0000.0,0000.70,0000.48,0000.44
2023-01-15 06:05:00,,0814.1,5.00,0.00,24.1,22.6,00.0,33.1,25.8,12.4,0000.0,0000.69,0000.47,0000.44
2023-01-15 06:06:00,,0814.3,4.99,0.00,24.1,22.6,00.0,33.0,25.9,12.2,0000.0,0000.78,0000.50,0000.45
2023-01-15 06:07:00,,0814.3,5.00,0.00,24.1,22.6,00.0,33.0,25.7,12.0,0000.0,0000.82,0000.51,0000.46
2023-01-15 06:08:00,,0814.6,5.01,0.00,24.1,22.6,00.0,33.0,25.7,11.8,0000.0,0000.83,0000.52,0000.46
2023-01-15 06:09:00,,0814.3,5.01,0.00,24.0,22.5,00.0,33.0,25.7,11.8,0000.0,0000.85,0000.53,0000.47
2023-01-15 06:10:00,,0814.4,4.99,0.00,24.0,22.5,00.0,33.0,25.7,11.8,0000.0,0000.87,0000.55,0000.47
2023-01-15 06:11:00,,0814.4,4.99,0.00,24.0,22.4,00.0,33.0,25.6,11.8,0000.0,0000.86,0000.55,0000.47
2023-01-15 06:12:00,,0814.4,5.00,0.00,24.0,22.4,00.0,33.0,25.6,11.7,0000.0,0000.87,0000.55,0000.47
2023-01-15 06:13:00,,0814.5,5.00,0.00,23.9,22.2,00.0,33.0,25.5,11.9,0000.0,0000.87,0000.55,0000.47
2023-01-15 06:14:00,,0814.5,5.01,0.00,23.9,22.0,00.0,32.9,25.5,12.2,0000.0,0001.02,0000.60,0000.49
2023-01-15 06:15:00,,0814.4,5.00,0.00,23.8,22.0,00.0,32.9,25.5,13.1,0000.0,0001.73,0001.13,0000.92
2023-01-15 06:16:00,,0814.4,5.01,0.00,23.8,22.0,00.0,32.9,25.5,13.3,0000.0,0002.67,0001.98,0001.72
2023-01-15 06:17:00,,0814.4,5.00,0.00,23.8,22.1,00.0,32.9,25.5,13.3,0000.0,0003.65,0002.82,0002.58
2023-01-15 06:18:00,,0814.4,5.00,0.00,23.8,22.1,00.0,32.9,25.5,13.2,0000.0,0005.02,0003.35,0003.20
2023-01-15 06:19:00,,0814.5,5.00,0.00,23.8,22.3,00.0,32.8,25.6,13.2,0000.0,0006.02,0003.77,0003.61
2023-01-15 06:20:00,,0814.4,5.00,0.00,23.9,22.4,00.0,32.8,25.6,13.3,0000.0,0007.10,0004.22,0004.01
2023-01-15 06:21:00,,0814.3,5.01,0.00,23.9,22.4,00.0,32.8,25.6,13.1,0000.0,0008.03,0004.57,0004.35
2023-01-15 06:22:00,,0814.3,4.99,0.00,23.8,22.2,00.0,32.8,25.5,12.6,0000.0,0008.38,0004.73,0004.50
2023-01-15 06:23:00,,0814.3,5.00,0.00,23.8,22.1,00.0,32.8,25.5,12.7,0000.0,0008.52,0004.86,0004.63
2023-01-15 06:24:00,,0814.4,5.01,0.00,23.8,22.0,00.0,32.8,25.5,12.7,0000.0,0008.67,0005.02,0004.79
2023-01-15 06:25:00,,0814.3,4.99,0.00,23.8,21.9,00.0,32.8,25.4,12.7,0000.0,0008.79,0005.16,0004.94
2023-01-15 06:26:00,,0814.1,5.01,0.00,23.8,22.0,00.0,32.8,25.4,12.6,0000.0,0008.60,0005.06,0004.87
2023-01-15 06:27:00,,0814.1,5.00,0.00,23.8,22.1,00.0,32.7,25.5,12.6,0000.0,0008.32,0004.79,0004.59
2023-01-15 06:28:00,,0814.4,5.00,0.00,23.8,22.2,00.0,32.7,25.4,12.5,0000.0,0007.95,0004.37,0004.20
2023-01-15 06:29:00,,0814.2,4.98,0.00,23.8,22.3,00.0,32.7,25.4,12.5,0000.0,0007.44,0003.99,0003.81
2023-01-15 06:30:00,,0814.0,5.00,0.00,23.8,22.4,00.0,32.7,25.5,12.7,0000.0,0006.57,0003.58,0003.42
2023-01-15 06:31:00,,0814.1,5.02,0.00,23.8,22.4,00.0,32.7,25.5,12.5,0000.0,0005.40,0003.08,0002.91
2023-01-15 06:32:00,,0814.1,4.99,0.00,23.8,22.4,00.0,32.7,25.5,12.2,0000.0,0004.11,0002.38,0002.24
2023-01-15 06:33:00,,0814.0,5.00,0.00,23.8,22.5,00.0,32.7,25.5,12.3,0000.0,0003.06,0001.99,0001.83
2023-01-15 06:34:00,,0814.1,4.97,0.00,23.8,22.5,00.0,32.7,25.5,12.3,0000.0,0002.79,0001.74,0001.58
2023-01-15 06:35:00,,0813.9,5.01,0.00,23.8,22.5,00.0,32.7,25.5,12.3,0000.0,0002.47,0001.43,0001.27
2023-01-15 06:36:00,,0813.9,5.00,0.00,23.8,22.5,00.0,32.7,25.5,12.2,0000.0,0002.09,0001.12,0000.97
2023-01-15 06:37:00,,0814.1,5.01,0.00,23.8,22.4,00.0,32.7,25.5,12.2,0000.0,0001.79,0000.85,0000.73
2023-01-15 06:38:00,,0814.3,5.00,0.00,23.8,22.4,00.0,32.7,25.5,12.1,0000.0,0001.52,0000.64,0000.52
2023-01-15 06:39:00,,0814.2,4.99,0.00,23.8,22.4,00.0,32.7,25.5,12.3,0000.0,0001.21,0000.51,0000.39
2023-01-15 06:40:00,,0814.3,5.01,0.00,23.8,22.4,00.0,32.7,25.5,12.3,0000.0,0000.63,0000.43,0000.35
2023-01-15 06:41:00,,0814.3,5.00,0.00,23.8,22.4,00.0,32.7,25.5,12.2,0000.0,0000.64,0000.43,0000.35
2023-01-15 06:42:00,,0814.3,5.01,0.00,23.8,22.4,00.0,32.7,25.5,12.1,0000.0,0000.63,0000.43,0000.35
2023-01-15 06:43:00,,0813.8,4.99,0.00,23.8,22.4,00.0,32.7,25.5,12.1,0000.0,0000.69,0000.44,0000.35
2023-01-15 06:44:00,,0813.9,5.01,0.00,23.8,22.4,00.0,32.7,25.5,12.4,0000.0,0000.71,0000.43,0000.36
2023-01-15 06:45:00,,0813.9,5.01,0.00,23.8,22.4,00.0,32.7,25.5,12.4,0000.0,0000.68,0000.42,0000.36
2023-01-15 06:46:00,,0814.0,4.98,0.00,23.8,22.4,00.0,32.7,25.5,12.4,0000.0,0000.68,0000.42,0000.35
2023-01-15 06:47:00,,0814.0,4.98,0.00,23.8,22.4,00.0,32.7,25.5,12.3,0000.0,0000.71,0000.45,0000.35
2023-01-15 06:48:00,,0814.4,4.98,0.00,23.8,22.4,00.0,32.7,25.5,12.3,0000.0,0000.68,0000.44,0000.35
2023-01-15 06:49:00,,0814.1,5.01,0.00,23.8,22.5,00.0,32.7,25.6,12.3,0000.0,0000.63,0000.43,0000.35
2023-01-15 06:50:00,,0814.1,4.98,0.00,23.8,22.5,00.0,32.7,25.5,12.2,0000.0,0000.62,0000.42,0000.35
2023-01-15 06:51:00,,0814.3,4.99,0.00,23.8,22.5,00.0,32.7,25.5,12.4,0000.0,0000.62,0000.42,0000.34
2023-01-15 06:52:00,,0814.3,5.01,0.00,23.8,22.4,00.0,32.7,25.5,12.3,0000.0,0000.61,0000.42,0000.35
2023-01-15 06:53:00,,0814.2,5.00,0.00,23.8,22.4,00.0,32.7,25.5,12.2,0000.0,0000.63,0000.43,0000.36
2023-01-15 06:54:00,,0814.3,5.00,0.00,23.8,22.4,00.0,32.7,25.5,12.3,0000.0,0000.62,0000.43,0000.35
2023-01-15 06:55:00,,0814.1,5.01,0.00,23.8,22.4,00.0,32.7,25.5,12.2,0000.0,0000.58,0000.43,0000.35
2023-01-15 06:56:00,,0814.3,4.99,0.00,23.8,22.4,00.0,32.7,25.5,12.2,0000.0,0000.62,0000.44,0000.35
2023-01-15 06:57:00,,0813.9,5.00,0.00,23.8,22.4,00.0,32.7,25.5,12.4,0000.0,0000.62,0000.44,0000.36
2023-01-15 06:58:00,,0814.0,5.00,0.00,23.8,22.4,00.0,32.7,25.5,12.2,0000.0,0000.58,0000.41,0000.36
2023-01-15 06:59:00,,0814.2,5.00,0.00,23.8,22.4,00.0,32.7,25.5,12.2,0000.0,0000.57,0000.41,0000.36
